Hall Beach,

8:00 PM EDT on June 26, 2017 (GMT -0400)
Hall Beach

Weather History for CYUX - May, 2013

Change the Weather History Date:

Monday, May 6, 2013

  Actual Average Record
Temperature  
Mean Temperature -4 °F -  
Max Temperature 6 °F 26 °F 32 °F (2008)
Min Temperature -14 °F 11 °F -16 °F (2011)
Degree Days  
Heating Degree Days 69    
Moisture  
Dew Point -8 °F    
Average Humidity 80    
Maximum Humidity 85    
Minimum Humidity 77    
Precipitation  
Precipitation 0.00 in 0.02 in - ()
Sea Level Pressure  
Sea Level Pressure 29.93 in    
Wind  
Wind Speed 15 mph ()    
Max Wind Speed 23 mph    
Max Gust Speed -    
Visibility 12.3 miles    
Events Snow    
Averages and records for this station are not official NWS values.
T = Trace of Precipitation, MM = Missing Value Source: Averaged Metar Reports

Daily Weather History Graph

Daily Weather History Graph

Search for Another Location

Airport or City:

Trip Planner

Search our weather history database for the weather conditions in past years. The results will help you decide how hot, cold, wet, or windy it might be!

Date:

Astronomy

May. 06, 2013 Rise Set
Actual Time 3:45 AM EDT 11:02 PM EDT
Civil Twilight 1:54 AM EDT 12:49 AM EDT
Nautical Twilight Sun does not set Sun does not set
Astronomical Twilight Sun does not set Sun does not set
Moon 3:46 AM EDT (5/6) 6:17 PM EDT (5/6)
Length of Visible Light 22h 55m
Length of Day
19h 17m
Waning Crescent, 11% of the Moon is Illuminated
May 6
Waning Crescent
May 9
New
May 18
First Quarter
May 25
Full
May 31
Last Quarter

Hourly Weather History & Observations

Time (EDT) Temp. Windchill Dew Point Humidity Pressure Visibility Wind Dir Wind Speed Gust Speed Precip Events Conditions
12:00 AM -4.0 °F -25.2 °F -7.6 °F 85% 29.94 in 9.0 mi NNW 16.1 mph - N/A   Overcast
1:00 AM -7.6 °F -29.1 °F -11.2 °F 84% 29.93 in 9.0 mi NNW 15.0 mph - N/A   Overcast
1:41 AM -9.4 °F -32.1 °F -13.0 °F 84% 29.93 in 9.0 mi NNW 16.1 mph - N/A   Scattered Clouds
2:00 AM -11.2 °F -34.4 °F -14.8 °F 84% 29.93 in 9.0 mi NNW 16.1 mph - N/A   Clear
3:00 AM -13.0 °F -33.4 °F -16.6 °F 84% 29.93 in 9.0 mi NW 11.5 mph - N/A   Clear
4:00 AM -14.8 °F -36.6 °F -18.4 °F 84% 29.93 in 9.0 mi NNW 12.7 mph - N/A   Clear
5:00 AM -14.8 °F -38.3 °F -18.4 °F 84% 29.94 in 9.0 mi NW 15.0 mph - N/A   Clear
7:00 AM -11.2 °F -32.1 °F -16.6 °F 77% 29.94 in 9.0 mi NW 12.7 mph - N/A   Clear
8:00 AM -7.6 °F -28.3 °F -13.0 °F 77% 29.94 in 15.0 mi NW 13.8 mph - N/A   Scattered Clouds
9:00 AM -5.8 °F -28.2 °F -11.2 °F 77% 29.94 in 15.0 mi NW 17.3 mph - N/A   Scattered Clouds
10:00 AM -4.0 °F -26.4 °F -9.4 °F 78% 29.93 in 15.0 mi NW 18.4 mph - N/A   Mostly Cloudy
11:00 AM -0.4 °F -21.7 °F -5.8 °F 78% 29.92 in 15.0 mi NW 18.4 mph - N/A   Mostly Cloudy
12:00 PM 1.4 °F -21.0 °F -4.0 °F 78% 29.92 in 15.0 mi NW 21.9 mph - N/A   Scattered Clouds
1:00 PM 3.2 °F -18.6 °F -2.2 °F 78% 29.92 in 15.0 mi NW 21.9 mph - N/A Snow Low Drifting Snow
2:00 PM 3.2 °F -18.6 °F -2.2 °F 78% 29.92 in 15.0 mi NW 21.9 mph - N/A Snow Low Drifting Snow
3:00 PM 5.0 °F -16.7 °F -0.4 °F 78% 29.92 in 15.0 mi NW 23.0 mph - N/A Snow Low Drifting Snow
4:00 PM 5.0 °F -15.2 °F -0.4 °F 78% 29.93 in 15.0 mi NNW 19.6 mph - N/A Snow Low Drifting Snow
5:00 PM 6.8 °F -12.4 °F 1.4 °F 79% 29.92 in 15.0 mi NNW 18.4 mph - N/A Snow Low Drifting Snow
6:00 PM 5.0 °F -16.2 °F -0.4 °F 78% 29.92 in 15.0 mi NNW 21.9 mph - N/A Snow Low Drifting Snow
7:00 PM 3.2 °F -17.1 °F -2.2 °F 78% 29.92 in 15.0 mi NNW 18.4 mph - N/A Snow Low Drifting Snow
8:00 PM 1.4 °F -17.6 °F -4.0 °F 78% 29.93 in 15.0 mi NW 15.0 mph - N/A Snow Low Drifting Snow
9:00 PM -0.4 °F -20.5 °F -5.8 °F 78% 29.92 in 9.0 mi NW 16.1 mph - N/A   Clear
10:00 PM -4.0 °F -25.8 °F -7.6 °F 85% 29.92 in 9.0 mi NW 17.3 mph - N/A   Clear
11:00 PM -5.8 °F -26.0 °F -11.2 °F 77% 29.92 in 9.0 mi NW 13.8 mph - N/A   Clear